Погода в Ивановке

Россия / Омская область     55°07′48″N   75°13′03″E
темп.,
°C
ветер,
м/с
пор.,
м/с
влажн.,
%
обл.,
%
осадки,
мм/ч
давл.,
гПа
погр.,
м
14 апреля, ср
ср1400:00+2з5793100 0.0 1037245
03:00+2зюз5119620 0.0 1035208
06:000зюз51096100 0.0 1034189
09:00+1зюз613100100 0.0 1033333
12:00+3зюз715100100 0.0 1031437
15:00+4зюз71699100 0.0 1029499
18:00+5з61395100 0.0 1028483
21:00+4зюз41098100 0.1 1028180
15 апреля, чт
чт1500:00+3з3699100 0.1 102890
03:00+3з229969 0.0 102716
06:00+4зюз3397100 0.0 102732
09:00+6юз4109842 0.1 1026250
12:00+9зюз599235 0.1 1025392
15:00+14з687941 0.0 1023909
18:00+14з59770 0.0 1022452
21:00+10юз410925 0.0 1021196
16 апреля, пт
пт1600:00+8зюз4119128 0.0 1020228
03:00+7зюз512886 0.0 1018227
06:00+6зюз512845 0.0 1017204
09:00+9зюз51274100 0.0 1016329
12:00+13з7106595 0.0 1015634
15:00+13ссз8871100 0.0 10161057
18:00+4ссв71187100 0.1 1020653
21:00+5ссв4980100 0.0 10211015
17 апреля, сб
сб1700:00+1св7117758 0.0 1023609
03:00−1св59755 0.0 1023556
06:00−2всв47745 0.0 1023555
09:00−1в33530 0.0 1023695
12:00+2зюз22474 0.0 10201038
15:00+5з46465 0.0 10181622
18:00+6зсз594660 0.0 10161961
21:00+3зюз496897 0.0 1015188
18 апреля, вс
вс1800:00+2сз4985100 0.1 1015843
03:000сз4872100 0.0 1016365
06:00−2ссз2579100 0.0 1016338
09:000св1156100 0.0 1016489
12:00+3ююв5648100 0.0 10131007
15:00+2ю4777100 0.9 1010699
18:00+2сз579293 2.9 1009605
21:00−3ссв8137771 0.5 1012725